Regional Weather Roundup
Issued by NWS

Home | Current Version | Previous Version | Text Only | Print | Product List | Glossary Off
Versions: 1 2 3 4 5 6 7 8 9 10 11 12 13 14 15 16 17 18 19 20 21 22 23 24 25 26 27 28 29 30 31 32 33 34 35 36 37 38 39 40 41 42 43 44 45 46 47 48 49 50

000
ASUS43 KIND 170500
RWRIN

WEATHER ROUNDUP FOR INDIANA
NATIONAL WEATHER SERVICE INDIANAPOLIS IN
100 AM EDT THU AUG 17 2017

NOTE: "FAIR" INDICATES FEW OR NO CLOUDS BELOW 12,000 FEET WITH NO
SIGNIFICANT WEATHER AND/OR OBSTRUCTIONS TO VISIBILITY.

* - STATION DOES NOT REPORT WEATHER SUCH AS PRECIPITATION OR FOG.

+ - STATION NOT QUALITY CONTROLLED BY THE NATIONAL WEATHER SERVICE.
    USE DATA WITH CAUTION...ESPECIALLY DEWPOINT AND RELATIVE
    HUMIDITY OBSERVATIONS.

INZ001>003-010>013-019-020-170600-
NORTHWEST INDIANA

CITY           SKY/WX    TMP DP  RH WIND       PRES   REMARKS
MICHIGAN CITY+ MOCLDY    77  70  78 S5        29.87F
MONTICELLO +   MOCLDY    78  72  83 S6        29.89S
RENSSELAER +   CLOUDY    77  68  73 S12       29.89S

$$

LMZ046-743>745-170600-
SOUTHERN LAKE MICHIGAN

STATION/POSITION TIME  TEMP    WIND        PRES    WAVE
                       AIR SEA DIR/SP/G            HT
                 (UTC) (F)     (DEG/KT/KT) (MB)    (FT)
BURNS HARBOR     0440   80     180/  6/ 16 1011.2F
MICHIGAN CITY    0430   79     150/ 10/ 13   N/A
5NW MICH CITY    0450   78 75  170/ 12/ 17   N/A     1

$$

INZ004-005-014>016-021>024-170600-
NORTH CENTRAL INDIANA

CITY           SKY/WX    TMP DP  RH WIND       PRES   REMARKS
GOSHEN         MOCLDY    77  67  71 SE7       29.90F
PERU/GRISSOM   PTCLDY    76  73  89 S6        29.91F
SOUTH BEND     MOCLDY    77  72  84 S7        29.89F
WARSAW +       CLOUDY    77  70  78 CALM      29.92S

$$

INZ006>009-017-018-025>027-170600-
NORTHEAST INDIANA

CITY           SKY/WX    TMP DP  RH WIND       PRES   REMARKS
FORT WAYNE     CLOUDY    75  68  78 SE5       29.93F
KENDALLVILLE + CLOUDY    73  68  83 SE6       29.94F

$$

INZ028-029-035-036-043>045-051>053-170600-
WEST CENTRAL INDIANA

CITY           SKY/WX    TMP DP  RH WIND       PRES   REMARKS
LAFAYETTE      MOCLDY    77  72  84 SW5       29.90R
TERRE HAUTE    MOCLDY    74  71  91 S7        29.91F

$$

INZ030>032-037>040-046>048-054>057-064-065-170600-
CENTRAL INDIANA

CITY           SKY/WX    TMP DP  RH WIND       PRES   REMARKS
GREENWOOD *+   CLOUDY    77  70  78 S6        29.94F
INDIANAPOLIS   CLOUDY    78  72  81 S13       29.90F
-EAGLE CREEK   CLOUDY    80  71  74 MISG      29.91F
KOKOMO +       MOCLDY    75  72  90 S7        29.93F
MT COMFORT *+  PTCLDY    75  72  88 S5        29.94F
SHELBYVILLE    MOCLDY    77  71  82 S8        29.93F

$$

INZ033-034-041-042-049-050-058-059-170600-
EAST CENTRAL INDIANA

CITY           SKY/WX    TMP DP  RH WIND       PRES   REMARKS
MUNCIE         CLOUDY    79  70  74 S7        29.94F
RICHMOND +     MOCLDY    70  70 100 S7        29.99S FOG

$$

INZ060-061-067>069-081>083-085>088-170600-
SOUTHWEST INDIANA

CITY           SKY/WX    TMP DP  RH WIND       PRES   REMARKS
EVANSVILLE     CLOUDY    78  74  87 S5        29.92F
HUNTINGBURG +  PTCLDY    77  74  90 S12       29.94F

$$

INZ062-063-066-070>080-084-089>092-170600-
SOUTH CENTRAL AND SOUTHEAST INDIANA

CITY           SKY/WX    TMP DP  RH WIND       PRES   REMARKS
BLOOMINGTON    CLOUDY    76  72  87 S6        29.93F
MADISON *+     CLOUDY    75  72  88 S5        30.00F
SEYMOUR +      MOCLDY    77  70  78 S6        29.95F

$$





USA.gov is the U.S. government's official web portal to all federal, state and local government web resources and services.